RH
23 21 23 19 17 14 13 13 15 15 13 22 21 22 28 44 47 50 57 59 61 62 64 70 76 81 66 58 59 62 60 50 50 45 40 37 46 49 64 65 62 70 70 72
26 23 16 16 19 17 14 14 15 15 13 15 16 22 25 40 46 47 55 57 58 58 63 69 73 78 70 56 58 59 56 56 44 43 46 42 43 53 66 65 70 69 70 70
17 15 14 19 21 20 18 13 13 14 13 15 19 17 26 36 42 45 53 52 58 56 60 65 71 72 68 54 52 53 53 56 51 54 58 52 49 56 66 68 72 72 73 71
14 13 17 19 19 19 17 14 12 14 16 18 17 21 27 26 43 44 47 54 53 55 59 63 65 73 65 48 49 50 51 55 57 58 62 62 50 54 58 64 65 69 76 73
17 17 20 22 17 18 16 14 14 12 15 16 16 21 17 33 39 42 42 46 52 52 55 61 64 46 56 61 48 50 51 52 55 54 57 60 64 60 60 64 62 66 72 75
12 14 15 18 17 17 15 17 16 17 15 22 18 18 18 19 25 29 36 41 48 51 52 57 62 59 65 51 51 52 52 53 54 55 55 55 59 63 64 62 62 64 68 73
16 15 14 13 18 17 16 16 20 22 21 20 15 20 19 15 18 15 26 37 42 48 51 52 60 64 52 58 42 44 49 51 54 54 55 55 54 58 60 61 63 66 68 62
19 22 14 13 15 16 18 15 15 20 16 13 18 20 16 13 12 17 18 24 36 44 46 48 50 52 43 42 46 43 42 42 46 50 52 53 54 55 58 61 62 64 66 58
17 16 13 13 11 13 17 19 12 13 18 16 12 13 13 13 13 15 19 21 29 34 41 45 49 46 39 40 38 35 35 35 41 41 43 47 51 54 54 57 57 62 66 67
19 21 14 12 11 11 14 13 18 16 19 19 15 18 13 18 14 15 18 18 22 25 32 38 45 49 44 38 35 35 33 28 29 37 38 39 42 47 51 52 54 56 62 67
27 20 19 15 15 15 15 17 14 13 14 13 13 10 14 16 21 17 14 14 18 22 25 28 34 36 39 48 48 40 37 35 32 30 34 36 39 42 47 49 50 51 56 61
40 21 21 19 13 11 12 14 15 16 23 16 12 10 11 12 12 17 13 14 17 21 19 23 23 33 42 47 50 44 39 39 34 31 31 32 33 36 40 45 45 48 50 55
39 35 28 23 16 14 15 14 14 13 13 21 17 12 9 12 12 12 14 16 12 11 12 19 26 30 30 32 38 44 35 31 33 36 34 34 34 36 37 38 42 44 47 50
42 38 32 24 23 27 27 18 15 14 18 18 17 13 12 12 14 13 14 11 11 12 9 11 14 17 21 27 30 34 35 37 36 38 34 35 33 33 34 36 38 40 43 47
39 41 38 34 30 29 30 26 23 21 17 20 15 15 13 13 13 12 12 15 11 13 8 11 12 10 13 22 28 31 32 37 36 36 35 29 30 34 35 35 36 39 41 43
38 36 38 34 26 24 30 26 25 23 21 20 18 17 12 14 13 14 12 12 10 15 6 11 8 11 10 14 19 25 29 29 34 31 26 27 32 35 35 34 34 37 38 40
45 36 34 32 31 29 30 24 22 21 19 18 21 16 13 13 14 16 15 14 13 11 6 6 5 7 6 7 9 17 21 29 32 29 29 32 31 35 34 37 36 35 36 37
46 56 39 28 31 37 20 21 22 22 16 15 15 15 14 14 14 14 12 10 10 7 6 6 6 6 5 5 8 11 22 24 26 30 34 36 35 33 38 37 34 34 36 35
44 42 40 31 30 25 22 20 32 42 26 35 26 16 13 12 13 16 15 11 9 8 7 7 7 6 6 6 7 15 25 28 31 30 30 29 28 31 38 41 33 35 35 38
42 44 42 37 30 31 27 22 33 54 40 55 59 49 30 14 17 13 11 9 8 8 7 7 7 6 7 7 13 19 23 27 27 24 24 28 34 38 38 35 40 43 42 36
58 53 53 41 39 27 22 32 59 55 35 63 64 66 69 61 27 16 15 17 11 8 9 8 7 6 8 14 18 20 26 26 21 31 37 41 48 47 51 61 67 74 73 83
45 62 59 49 45 39 22 22 33 52 64 62 64 66 76 78 75 67 40 24 16 13 14 12 11 12 13 14 20 25 28 28 30 29 29 32 35 43 60 63 68 66 78 95
59 45 52 45 30 30 33 41 32 57 63 60 74 71 82 87 83 77 44 59 53 38 27 27 23 16 14 19 27 29 30 34 35 37 39 42 47 50 61 63 68 76 46 74
49 52 66 53 39 42 35 36 42 70 62 75 83 86 94 97 88 65 72 72 76 51 43 50 47 32 27 25 26 32 35 34 35 40 44 50 52 56 66 82 66 75 87 90
51 53 57 58 51 56 52 45 49 54 65 70 84 95 99 99 91 89 95 98 91 72 59 52 48 44 43 43 41 40 38 36 35 39 42 45 48 52 59 68 74 44 39 81
63 62 69 62 47 50 47 47 50 81 65 84 71 98 100 100 100 100 100 89 76 70 59 49 45 41 38 35 32 31 30 29 29 28 28 30 34 41 58 72 60 74 80 90
Wind_Speed
18 12 22 22 18 14 7 15 11 4 3 6 12 13 9 18 23 25 27 30 32 34 32 30 31 30 33 35 34 32 30 29 30 31 30 30 29 28 26 21 19 16 14 13
8 24 21 13 15 17 16 17 16 8 10 4 6 10 9 15 24 31 34 34 35 32 29 31 31 31 33 35 36 36 33 30 31 32 30 32 30 31 27 23 19 19 17 14
26 6 20 19 15 18 20 22 19 14 3 4 7 13 6 11 19 22 28 30 30 33 35 34 34 36 35 37 38 38 36 34 33 32 30 30 31 31 30 27 23 22 20 16
22 20 22 23 26 22 23 17 16 15 8 11 5 12 6 11 16 18 24 30 32 34 33 31 36 35 39 41 39 37 37 37 35 34 34 32 33 33 31 30 27 24 21 18
18 23 18 25 25 20 16 11 16 17 14 11 13 8 12 4 12 19 24 32 34 36 36 36 38 46 45 40 42 40 38 38 38 37 37 35 35 32 28 28 26 27 25 23
19 9 24 16 20 23 13 7 9 6 9 15 20 14 17 15 15 14 21 29 32 35 37 36 37 37 38 42 44 43 42 41 41 41 39 39 37 35 32 30 26 25 27 27
20 14 12 20 17 19 20 16 7 9 11 15 12 14 21 9 18 20 18 31 35 36 38 39 36 36 43 43 47 46 45 44 43 43 44 43 40 38 35 31 28 26 25 24
19 16 20 19 21 14 26 22 9 14 14 12 8 13 13 15 23 25 24 24 27 31 36 39 43 46 49 49 47 48 49 46 45 44 45 45 44 42 39 36 33 28 27 24
19 19 9 17 12 22 15 23 22 8 1 5 13 14 10 8 18 18 23 20 24 30 34 39 42 46 51 51 50 49 48 47 48 45 43 45 46 45 43 39 34 32 30 27
6 7 13 25 20 23 14 18 11 13 15 13 8 9 13 18 19 17 18 22 26 28 29 33 37 43 50 51 52 52 50 47 46 47 45 44 44 44 44 41 37 33 32 29
2 5 4 16 21 22 11 19 12 13 9 9 7 10 8 15 17 20 22 30 28 28 30 32 36 41 45 44 47 53 54 53 51 47 47 45 47 47 46 45 40 35 33 31
3 4 11 17 14 22 23 19 22 11 14 12 7 7 1 10 10 13 20 25 21 24 30 30 31 31 32 42 45 49 51 53 54 52 50 48 46 47 47 46 42 38 35 33
4 3 12 12 10 10 21 23 22 21 12 17 11 6 11 4 3 7 13 17 21 21 25 27 23 28 35 41 45 47 47 49 49 53 55 54 53 51 50 47 45 41 38 36
4 1 10 14 11 3 6 11 24 24 17 18 20 17 9 6 6 7 11 17 16 17 21 18 21 26 30 36 41 44 46 46 46 47 50 53 54 54 52 49 46 44 41 39
4 2 5 5 7 6 9 10 10 18 24 22 21 27 21 17 18 13 13 13 19 21 23 21 19 19 23 30 37 41 44 45 45 46 47 47 48 50 50 49 46 44 44 42
7 1 4 8 9 9 11 13 14 15 17 16 22 26 11 8 19 25 29 28 29 24 26 24 23 21 20 22 28 37 41 45 46 48 46 45 45 47 48 47 46 44 45 44
5 3 2 5 7 13 15 21 17 14 13 15 21 18 14 16 16 18 25 30 30 30 26 28 29 29 28 27 29 32 36 43 46 47 46 46 45 46 44 45 44 45 45 45
4 3 3 5 3 10 6 5 6 13 17 20 23 19 16 16 24 27 33 34 37 39 39 40 38 38 37 36 33 35 38 40 42 45 45 45 46 46 45 44 44 46 46 47
16 8 4 5 12 16 18 7 2 4 12 6 13 19 19 25 26 24 24 33 41 45 47 46 38 34 22 25 29 34 37 42 42 42 44 45 45 46 47 46 45 47 47 48
13 14 8 5 8 11 1 7 4 3 14 6 5 9 14 20 17 13 27 32 34 37 35 34 29 27 27 25 24 28 33 37 39 39 41 42 44 45 46 45 47 46 47 47
5 8 16 14 11 9 10 5 1 10 1 6 6 11 15 11 17 23 28 22 25 26 26 24 24 24 23 22 21 24 27 31 31 30 32 36 39 39 40 41 42 41 42 41
7 7 7 11 10 20 7 17 13 4 8 14 18 20 21 23 28 30 33 25 24 20 17 18 20 20 18 14 17 21 24 24 25 25 27 29 31 33 33 36 37 36 37 40
8 11 7 10 10 12 14 19 25 13 20 22 21 26 22 27 30 26 21 14 13 13 13 13 15 16 12 10 12 16 17 17 15 14 17 21 23 25 28 30 32 35 40 44
8 12 10 15 20 23 33 36 32 21 22 22 21 27 25 29 26 21 18 14 14 18 21 20 21 22 19 14 12 10 9 9 10 11 12 14 17 21 25 26 27 26 27 45
11 8 9 16 20 24 33 34 32 29 25 26 24 24 24 21 19 19 17 17 18 21 26 25 23 23 22 18 15 13 10 8 6 4 4 8 13 17 22 26 28 35 44 50
19 21 13 13 18 17 23 24 24 22 26 20 22 15 8 14 14 16 19 22 23 22 23 24 20 19 17 14 10 7 6 4 2 3 5 7 9 13 18 25 28 33 37 40
Wind_Direction
194 202 211 209 215 226 231 231 236 251 243 250 240 261 228 196 203 199 193 196 197 206 208 206 208 209 212 214 215 213 213 212 211 211 210 209 213 210 212 218 224 226 233 229
173 222 212 208 202 217 224 233 237 253 268 272 275 256 215 195 207 206 196 200 203 204 204 207 208 207 210 215 215 215 213 213 210 211 212 216 215 213 216 220 224 226 226 228
205 212 200 198 201 213 225 226 230 241 304 228 267 262 222 217 224 218 215 211 208 205 202 203 208 209 211 215 215 215 213 214 212 211 213 217 216 219 222 224 223 222 227 233
220 205 192 203 216 207 226 221 234 236 242 249 219 263 225 222 216 218 215 212 213 209 211 205 208 213 213 216 216 216 217 217 217 216 218 219 219 222 228 232 230 228 227 232
201 200 190 210 210 201 226 206 211 230 236 252 224 254 245 200 220 219 218 217 213 214 210 207 209 215 217 218 219 222 221 221 221 221 222 224 226 229 233 234 234 233 235 235
207 205 196 202 208 202 199 172 177 194 231 239 234 229 252 220 220 225 222 221 216 214 215 216 217 217 218 223 227 225 225 226 226 226 226 227 229 230 233 234 233 234 236 237
203 195 195 197 188 199 201 183 182 209 217 237 224 223 241 234 220 229 213 218 216 214 213 216 216 215 224 222 227 228 230 229 229 229 230 231 232 232 234 236 236 235 235 232
195 209 196 188 201 187 199 199 205 214 235 237 184 236 240 222 224 228 233 228 217 214 217 217 217 221 229 231 231 231 228 227 229 230 231 231 234 236 236 238 238 236 236 236
202 216 190 182 185 185 185 210 210 242 142 252 227 243 259 235 217 215 223 218 215 219 218 221 218 222 230 232 232 232 234 231 231 228 230 233 234 235 237 237 238 237 238 237
186 207 199 197 188 199 192 173 179 213 225 234 213 240 234 198 211 214 226 220 219 224 224 223 221 220 227 235 235 233 234 235 232 231 230 232 234 235 236 238 238 237 237 235
236 234 146 177 202 183 184 191 200 198 222 223 245 242 201 220 215 212 216 217 218 222 227 226 225 230 231 227 230 235 234 233 234 234 235 234 236 235 235 237 237 236 237 234
28 241 214 206 195 213 201 197 198 202 197 232 267 241 174 232 229 233 236 233 235 229 234 230 232 228 222 223 224 233 237 237 235 233 233 233 235 238 238 237 237 234 234 233
352 227 199 227 212 205 218 213 206 216 229 211 211 194 236 216 182 214 230 241 249 254 257 245 236 227 232 231 229 227 236 237 238 236 235 235 236 237 239 239 237 236 234 234
314 24 255 222 223 13 219 217 212 219 227 228 228 242 223 244 241 271 267 269 263 259 244 246 241 242 244 238 235 233 237 235 234 234 235 235 236 238 239 240 238 237 234 233
15 30 338 315 308 291 262 253 239 232 235 233 243 242 239 249 276 273 280 285 288 282 267 247 238 243 245 243 241 239 239 236 233 233 236 239 239 238 239 240 239 236 234 232
351 313 335 307 305 290 277 255 250 246 245 255 259 261 257 277 257 267 263 269 277 268 268 252 263 245 245 245 245 242 237 236 234 234 238 239 239 238 237 237 237 236 234 232
317 294 265 263 325 318 269 243 244 247 240 243 244 250 253 253 243 244 257 255 252 261 263 270 270 257 266 265 258 244 243 237 235 236 237 237 239 239 239 237 236 235 233 231
249 236 232 262 287 244 258 356 274 263 250 233 246 250 246 247 251 242 239 244 250 254 258 264 266 270 272 268 255 250 241 238 237 237 236 237 237 239 239 235 234 234 231 229
218 224 230 229 226 279 291 266 275 266 248 296 277 251 248 252 258 263 247 250 255 259 262 268 269 270 269 256 261 249 237 237 234 237 239 239 240 240 239 238 235 232 230 230
208 224 232 196 236 238 220 241 252 171 265 151 325 292 276 256 249 254 259 259 262 260 261 263 261 260 259 265 251 240 236 234 236 240 245 245 244 242 242 243 241 235 233 232
171 206 217 227 246 254 263 263 91 216 187 324 305 295 295 271 259 265 277 278 275 270 257 248 247 241 255 257 240 231 231 233 240 247 247 248 249 247 247 246 243 242 241 235
213 198 204 226 240 241 243 252 242 338 317 313 309 307 297 280 278 275 273 279 265 249 237 228 227 229 228 240 224 223 226 234 237 244 251 255 257 253 245 243 244 243 245 243
246 227 229 223 230 263 294 297 280 295 292 301 298 300 294 285 275 274 264 236 216 197 189 177 181 184 190 193 185 200 209 215 229 240 242 243 246 249 245 245 240 243 240 243
263 260 242 252 255 267 274 279 279 287 289 296 293 290 286 278 272 255 223 203 177 165 153 148 142 135 133 141 155 170 185 200 216 228 237 241 240 242 242 236 239 227 240 246
253 277 263 268 269 277 276 267 275 273 270 284 294 289 277 264 245 205 174 156 144 140 135 133 129 125 122 120 120 119 117 115 125 147 200 235 243 241 241 238 236 237 235 240
239 243 229 249 258 255 260 279 269 266 254 255 271 273 216 177 149 145 132 132 130 128 126 122 119 116 115 118 122 126 134 148 202 249 253 253 249 248 235 239 245 243 240 241